Location: Bourg-d�Oueil
(42.8588°N, 0.4991°E)
Time: 15:16:34
(UTC+00:00)

Cosmos 389 Rocket - Pass Details

Date: 16 June 2021
Orbit: 440 x 471 km, 81.1° (Epoch: 31 July)

Event Time Altitude Azimuth Distance (km) Brightness Sun altitude
Rises 21:58:18 0° 6° (N) 2,443 7.0 -18.2°
Reaches altitude 10° 22:00:54 10° 27° (NNE) 1,570 5.6 -18.4°
Maximum altitude 22:03:15 17° 71° (ENE) 1,193 4.4 -18.6°
Enters shadow 22:03:26 17° 75° (ENE) 1,196 4.4 -18.6°
